Hourly Weather Stalowa Wola

Today, 10 July, Friday

Time Temperature Precipitation Wind Pressure Humidity
00:00 +18°C° 0 mm 3 mps 747 mmHg 88%
01:00 +17°C° 0 mm 2 mps 747 mmHg 95%
02:00 +17°C° 0 mm 2 mps 747 mmHg 95%
03:00 +17°C° 0 mm 3 mps 747 mmHg 95%
04:00 +17°C° 0 mm 3 mps 747 mmHg 95%
05:00 +18°C° 0 mm 3 mps 747 mmHg 90%
06:00 +20°C° 0 mm 4 mps 747 mmHg 84%
07:00 +22°C° 0 mm 4 mps 747 mmHg 79%
08:00 +23°C° 0 mm 4 mps 746 mmHg 73%
09:00 +26°C° 0 mm 5 mps 746 mmHg 67%
10:00 +28°C° 0 mm 5 mps 746 mmHg 61%
11:00 +28°C° 0 mm 5 mps 746 mmHg 59%
12:00 +29°C° 0 mm 5 mps 746 mmHg 57%
13:00 +30°C° 0 mm 6 mps 745 mmHg 55%
14:00 +30°C° 0 mm 5 mps 745 mmHg 55%
15:00 +30°C° 0 mm 5 mps 745 mmHg 56%
16:00 +32°C° 0 mm 4 mps 745 mmHg 56%
17:00 +29°C° 0 mm 5 mps 745 mmHg 61%
18:00 +27°C° 0 mm 5 mps 745 mmHg 66%
19:00 +26°C° 0 mm 5 mps 745 mmHg 71%
20:00 +25°C° 0 mm 5 mps 745 mmHg 71%
21:00 +23°C° 0 mm 4 mps 745 mmHg 72%
22:00 +23°C° 0 mm 4 mps 745 mmHg 72%
23:00 +22°C° 0.1 mm 3 mps 746 mmHg 76%

Tomorrow, 11 July, Saturday

Time Temperature Precipitation Wind Pressure Humidity
00:00 +21°C° 0.1 mm 2 mps 746 mmHg 80%
01:00 +21°C° 0.1 mm 1 mps 746 mmHg 84%
02:00 +21°C° 0 mm 1 mps 747 mmHg 86%
03:00 +20°C° 0 mm 2 mps 747 mmHg 87%
04:00 +19°C° 0 mm 2 mps 747 mmHg 89%
05:00 +20°C° 0 mm 2 mps 748 mmHg 86%
06:00 +21°C° 0 mm 2 mps 748 mmHg 84%
07:00 +22°C° 0 mm 3 mps 748 mmHg 82%
08:00 +21°C° 0 mm 3 mps 749 mmHg 81%
09:00 +21°C° 0 mm 4 mps 749 mmHg 81%
10:00 +21°C° 0 mm 4 mps 749 mmHg 80%
11:00 +21°C° 0.1 mm 5 mps 749 mmHg 78%
12:00 +21°C° 0.1 mm 5 mps 749 mmHg 76%
13:00 +21°C° 0.1 mm 5 mps 749 mmHg 74%
14:00 +19°C° 0.3 mm 6 mps 749 mmHg 77%
15:00 +16°C° 0.3 mm 6 mps 750 mmHg 81%
16:00 +14°C° 0.3 mm 6 mps 750 mmHg 85%
17:00 +14°C° 0.3 mm 6 mps 750 mmHg 86%
18:00 +13°C° 0.3 mm 5 mps 750 mmHg 88%
19:00 +12°C° 0.3 mm 5 mps 751 mmHg 89%
20:00 +12°C° 0.4 mm 4 mps 751 mmHg 91%
21:00 +11°C° 0.4 mm 4 mps 751 mmHg 92%
22:00 +11°C° 0.4 mm 3 mps 751 mmHg 94%
23:00 +11°C° 0.5 mm 3 mps 751 mmHg 94%

Day after tomorrow, 12 July, Sunday

Time Temperature Precipitation Wind Pressure Humidity
00:00 +11°C° 0.5 mm 3 mps 751 mmHg 94%
01:00 +11°C° 0.5 mm 3 mps 751 mmHg 94%
02:00 +11°C° 1.8 mm 4 mps 751 mmHg 95%
03:00 +11°C° 1.8 mm 4 mps 751 mmHg 95%
04:00 +11°C° 1.8 mm 4 mps 751 mmHg 96%
05:00 +11°C° 1.5 mm 4 mps 751 mmHg 95%
06:00 +11°C° 1.5 mm 3 mps 751 mmHg 94%
07:00 +12°C° 1.5 mm 3 mps 752 mmHg 93%
08:00 +13°C° 1 mm 3 mps 752 mmHg 91%
09:00 +13°C° 1 mm 3 mps 752 mmHg 88%
10:00 +15°C° 1 mm 2 mps 752 mmHg 85%
11:00 +16°C° 0.2 mm 2 mps 752 mmHg 79%
12:00 +17°C° 0.2 mm 2 mps 752 mmHg 73%
13:00 +19°C° 0.2 mm 2 mps 752 mmHg 67%
14:00 +19°C° 0.2 mm 2 mps 752 mmHg 68%
15:00 +19°C° 0.2 mm 2 mps 752 mmHg 69%
16:00 +19°C° 0.2 mm 2 mps 751 mmHg 69%
17:00 +18°C° 0.3 mm 2 mps 751 mmHg 74%
18:00 +17°C° 0.3 mm 2 mps 751 mmHg 79%
19:00 +16°C° 0.3 mm 2 mps 751 mmHg 84%
20:00 +15°C° 0 mm 2 mps 751 mmHg 85%
21:00 +14°C° 0 mm 2 mps 752 mmHg 86%
22:00 +13°C° 0 mm 2 mps 752 mmHg 88%
23:00 +12°C° 0 mm 2 mps 752 mmHg 89%

13 July, Monday

Time Temperature Precipitation Wind Pressure Humidity
00:00 +10°C° 0 mm 2 mps 752 mmHg 90%
01:00 +10°C° 0 mm 2 mps 752 mmHg 91%
02:00 +10°C° 0 mm 2 mps 752 mmHg 92%
03:00 +9°C° 0 mm 2 mps 752 mmHg 92%
04:00 +9°C° 0 mm 2 mps 752 mmHg 92%
05:00 +12°C° 0 mm 2 mps 752 mmHg 88%
06:00 +12°C° 0 mm 3 mps 752 mmHg 84%
07:00 +14°C° 0 mm 3 mps 752 mmHg 80%
08:00 +16°C° 0.1 mm 3 mps 752 mmHg 74%
09:00 +17°C° 0.1 mm 4 mps 751 mmHg 68%
10:00 +19°C° 0.1 mm 4 mps 751 mmHg 62%
11:00 +19°C° 0.1 mm 4 mps 751 mmHg 60%
12:00 +20°C° 0.1 mm 4 mps 751 mmHg 59%
13:00 +20°C° 0.1 mm 4 mps 751 mmHg 57%
14:00 +20°C° 0.1 mm 4 mps 750 mmHg 58%
15:00 +20°C° 0.1 mm 4 mps 750 mmHg 58%
16:00 +20°C° 0.1 mm 3 mps 749 mmHg 59%
17:00 +19°C° 0 mm 3 mps 749 mmHg 65%
18:00 +18°C° 0 mm 3 mps 749 mmHg 71%
19:00 +17°C° 0 mm 2 mps 749 mmHg 78%
20:00 +16°C° 0 mm 2 mps 749 mmHg 82%
21:00 +15°C° 0 mm 2 mps 749 mmHg 87%
22:00 +14°C° 0 mm 2 mps 749 mmHg 91%
23:00 +13°C° 0 mm 2 mps 749 mmHg 92%

14 July, Tuesday

Time Temperature Precipitation Wind Pressure Humidity
00:00 +13°C° 0 mm 2 mps 750 mmHg 93%
01:00 +12°C° 0 mm 2 mps 750 mmHg 94%
02:00 +12°C° 0 mm 2 mps 749 mmHg 95%
03:00 +12°C° 0 mm 2 mps 749 mmHg 95%
04:00 +12°C° 0 mm 2 mps 749 mmHg 96%
05:00 +13°C° 0 mm 2 mps 749 mmHg 91%
06:00 +15°C° 0 mm 2 mps 749 mmHg 86%
07:00 +16°C° 0 mm 2 mps 749 mmHg 81%
08:00 +18°C° 0.1 mm 2 mps 749 mmHg 75%
09:00 +19°C° 0.1 mm 2 mps 749 mmHg 70%
10:00 +20°C° 0.1 mm 2 mps 749 mmHg 65%
11:00 +21°C° 0.1 mm 2 mps 749 mmHg 62%
12:00 +21°C° 0.1 mm 2 mps 749 mmHg 60%
13:00 +23°C° 0.1 mm 2 mps 748 mmHg 58%
14:00 +23°C° 0.1 mm 2 mps 748 mmHg 58%
15:00 +23°C° 0.1 mm 2 mps 748 mmHg 58%
16:00 +23°C° 0.1 mm 1 mps 748 mmHg 59%
17:00 +22°C° 0.1 mm 1 mps 748 mmHg 65%
18:00 +20°C° 0.1 mm 1 mps 748 mmHg 72%
19:00 +19°C° 0.1 mm 1 mps 748 mmHg 79%
20:00 +18°C° 0 mm 1 mps 748 mmHg 82%
21:00 +16°C° 0 mm 1 mps 748 mmHg 85%
22:00 +15°C° 0 mm 1 mps 748 mmHg 88%
23:00 +15°C° 0 mm 1 mps 748 mmHg 89%

15 July, Wednesday

Time Temperature Precipitation Wind Pressure Humidity
00:00 +15°C° 0 mm 1 mps 748 mmHg 90%
01:00 +14°C° 0 mm 1 mps 748 mmHg 92%
02:00 +14°C° 0 mm 1 mps 748 mmHg 92%
03:00 +14°C° 0 mm 1 mps 747 mmHg 92%
04:00 +13°C° 0 mm 1 mps 747 mmHg 93%
05:00 +15°C° 0 mm 1 mps 747 mmHg 88%
06:00 +17°C° 0 mm 2 mps 747 mmHg 83%
07:00 +18°C° 0 mm 2 mps 747 mmHg 78%
08:00 +20°C° 0 mm 2 mps 747 mmHg 71%
09:00 +21°C° 0 mm 2 mps 747 mmHg 64%
10:00 +24°C° 0 mm 2 mps 747 mmHg 58%
11:00 +25°C° 0 mm 2 mps 747 mmHg 55%
12:00 +25°C° 0 mm 3 mps 747 mmHg 53%
13:00 +26°C° 0 mm 3 mps 746 mmHg 50%
14:00 +26°C° 0 mm 3 mps 746 mmHg 52%
15:00 +26°C° 0 mm 3 mps 746 mmHg 53%
16:00 +26°C° 0 mm 3 mps 746 mmHg 54%
17:00 +24°C° 0 mm 3 mps 746 mmHg 62%
18:00 +23°C° 0 mm 2 mps 745 mmHg 69%
19:00 +20°C° 0 mm 2 mps 745 mmHg 76%
20:00 +19°C° 0 mm 2 mps 745 mmHg 80%
21:00 +18°C° 0 mm 2 mps 745 mmHg 84%
22:00 +17°C° 0 mm 2 mps 745 mmHg 88%
23:00 +17°C° 0 mm 2 mps 745 mmHg 88%
Show more